Flag for Canada Weather past 2 weeks in Saguenay, Quebec, Canada

Now
35 °F

Chilly.


Feels Like: 29 °F
Forecast: 10 / 26 °F
Wind: 8 mph from West

Location: Jonquiere Airport

Current Time: Mar 26, 2015 at 9:59:54 PM

Latest Report: Mar 26, 2015 at 9:00 PM


Visibility: N/A

Pressure: 29.71 "Hg

Humidity: 70%

Dew point: 26 °F

Location of SaguenayLocation

Historic Weather in Saguenay — Graph

°F

Saguenay temperature yesterday

Maximum temperature yesterday: 41 °F (at 4:00 PM)
Minimum temperature yesterday: 3 °F (at 7:00 AM)
Average temperature yesterday: 24 °F

Past Weeks' High & Low Weather Summary

 TemperatureHumidityPressure
High41 °F (Mar 25, 4:00 PM)97% (Mar 21, 3:00 PM)30.62 "Hg (Mar 21, 3:00 PM)
Low-6 °F (Mar 13, 7:00 AM)21% (Mar 24, 6:00 PM)29.47 "Hg (Mar 17, 11:00 AM)
Average17 °F63%30.05 "Hg
* Reported Mar 11 9:00 PM — Mar 26 9:00 PM, Saguenay, Weather by CustomWeather, © 2015

Note: Actual official high and low records may vary slightly from our data, if they occured in-between our weather recording intervals... More about our weather records

Advertising

Saguenay weather history for previous 24 hours

 ConditionsComfort  
Time TempWeatherWind HumidityBarometerVisibility
9:00 PM
Thu, Mar 26
35 °FChilly.8 mph70%29.71 "HgN/A
8:00 PM36 °FChilly.14 mph69%29.69 "HgN/A
7:00 PM37 °FChilly.8 mph61%29.67 "HgN/A
6:00 PM38 °FChilly.10 mph58%29.66 "HgN/A
5:00 PM39 °FChilly.12 mph56%29.65 "HgN/A
4:00 PM38 °FChilly.12 mph59%29.66 "HgN/A
3:00 PM38 °FChilly.16 mph62%29.67 "HgN/A
2:00 PM38 °FChilly.18 mph59%29.67 "HgN/A
1:00 PM38 °FChilly.18 mph59%29.65 "HgN/A
12:00 PM39 °FChilly.21 mph61%29.62 "HgN/A
11:00 AM36 °FChilly.16 mph85%29.62 "HgN/A
10:00 AM37 °FChilly.16 mph79%29.62 "HgN/A
9:00 AM37 °FChilly.16 mph74%29.63 "HgN/A
8:00 AM37 °FChilly.13 mph82%29.61 "HgN/A
7:00 AM38 °FChilly.14 mph78%29.58 "HgN/A
6:00 AM37 °FChilly.17 mph80%29.57 "HgN/A
5:00 AM38 °FChilly.16 mph78%29.58 "HgN/A
4:00 AM35 °FChilly.7 mph77%29.60 "HgN/A
3:00 AM35 °FChilly.5 mph71%29.64 "HgN/A
2:00 AM36 °FChilly.3 mph62%29.67 "HgN/A
1:00 AM37 °FChilly.6 mph56%29.70 "HgN/A
12:00 AM37 °FChilly.6 mph66%29.75 "HgN/A
11:00 PM
Wed, Mar 25
36 °FChilly.7 mph44%29.79 "HgN/A
10:00 PM35 °FChilly.7 mph46%29.84 "HgN/A
9:00 PM35 °FChilly.8 mph44%29.89 "HgN/A
Weather by CustomWeather, © 2015

See weather overviewHow to use our weather pages